Regional Weather Roundup
Issued by NWS

Home | Current Version | Previous Version | Text Only | Print | Product List | Glossary On
Versions: 1 2 3 4 5 6 7 8 9 10 11 12 13 14 15 16 17 18 19 20 21 22 23 24 25 26 27 28 29 30 31 32 33 34 35 36 37 38 39 40 41 42 43 44 45 46 47 48 49 50
000
ASUS44 KFWD 271701
RWRTX
NORTH TEXAS HOURLY WEATHER ROUNDUP
NATIONAL WEATHER SERVICE FORT WORTH TX
1200 PM CDT WED MAY 27 2015

NOTE: "FAIR" INDICATES FEW OR NO CLOUDS BELOW 12,000 FEET WITH NO
SIGNIFICANT WEATHER AND/OR OBSTRUCTIONS TO VISIBILITY.

TXZ118-119-271800-
DALLAS/FORT WORTH METROPLEX

CITY           SKY/WX    TMP DP  RH WIND       PRES   REMARKS
DFW AIRPORT    MOSUNNY   78  62  57 SE10      30.09S
DALLAS LOVE    MOSUNNY   79  63  57 S8        30.10S
FTW MEACHAM    SUNNY     81  66  60 S12G22    30.09S
DAL-EXECUTIVE  SUNNY     77  63  61 SE8       30.09S
FTW-ALLIANCE   MOSUNNY   81  64  56 SE8       30.09S
FTW-NAS-JRB    MOSUNNY   81  66  60 SE9       30.09F
FTW-SPINKS     SUNNY     81  66  61 S8        30.11S
ARLINGTON      SUNNY     81  63  54 SE9       30.10S
MESQUITE       SUNNY     79  64  61 S7        30.11S
LANCASTER      SUNNY     79  62  55 SE5       30.11F
$$

TXZ091>094-102>105-117-120-121-131>134-271800-
NORTH CENTRAL TEXAS

CITY           SKY/WX    TMP DP  RH WIND       PRES   REMARKS
SHRMAN/DENISON SUNNY     80  64  58 S3G16     30.11F
GAINESVILLE    SUNNY     78  62  57 SE9       30.12S
BRIDGEPORT     MOSUNNY   79  68  67 S6        30.11S
DECATUR        SUNNY     77  62  58 S12       30.10F
DENTON         SUNNY     80  63  55 SE10      30.09S
MCKINNEY       SUNNY     78  61  55 S9        30.11R
ROCKWALL       SUNNY    N/A N/A N/A SE6       30.10S
TERRELL        SUNNY     78  65  63 VRB7      30.12R
WAXAHACHIE     SUNNY     78  66  66 SE7       30.11F
$$

TXZ083>090-098>101-113>116-127>130-139>142-154-155-271800-
WESTERN NORTH TEXAS

CITY           SKY/WX    TMP DP  RH WIND       PRES   REMARKS
WICHITA FALLS  PTSUNNY   76  65  68 SE9       30.08S
WF-KICKAPOO    PTSUNNY   79  66  65 SE6       30.09S
ABILENE        PTSUNNY   82  71  69 S9        30.08S
ABILENE-DYESS  PTSUNNY   83  66  56 S9G18     30.06F
BRECKENRIDGE   CLOUDY    82  70  67 SW6       30.08R
MINERAL WELLS  PTSUNNY   79  69  71 SE9       30.07F
STEPHENVILLE   MOSUNNY   79  69  71 S14       30.12S
COMANCHE       CLOUDY    80  73  78 S9G16     30.09S
BRADY          MOSUNNY   82  70  65 SE13      30.08S
$$

TXZ143>147-156>162-174-175-271800-
CENTRAL TEXAS

CITY           SKY/WX    TMP DP  RH WIND       PRES   REMARKS
WACO           SUNNY     79  67  66 VRB6      30.09S
WACO-MCGREGOR    N/A    N/A N/A N/A MISG        N/A
CORSICANA      MOSUNNY   80  67  64 SE5       30.11F
MEXIA          MOSUNNY   77  68  73 SE10G16   30.10R
HEARNE         SUNNY     80  72  77 SE7       30.09F
TEMPLE         PTSUNNY   79  66  65 S9        30.08F
KILLEEN        CLOUDY    78  70  76 SE12      30.08F
KILLEEN-SKYLRK PTSUNNY   77  66  69 S9G17     30.09F
FORT HOOD      MOSUNNY   77  69  75 S10       30.08F
LAMPASAS       CLOUDY    78  72  82 SE10      30.09F HAZE
$$

TXZ095>097-106>112-122>126-135>138-148>153-164>167-271800-
EAST TEXAS

CITY           SKY/WX    TMP DP  RH WIND       PRES   REMARKS
PARIS          SUNNY     81  61  50 S12       30.12S
GILMER         SUNNY     77  67  71 CALM      30.11F
TYLER          SUNNY     79  65  62 S5        30.11F
LONGVIEW       SUNNY     78  67  68 SE5       30.11S
MARSHALL       MOSUNNY   78  66  64 S5        30.13F
ATHENS         MOSUNNY   77  64  65 SE3       30.09F
PALESTINE      SUNNY     80  67  65 S3        30.12S
JACKSONVILLE   PTSUNNY   77  66  68 S5        30.14S
NACOGDOCHES    PTSUNNY   79  66  65 W8        30.11F
LUFKIN         CLOUDY    76  68  76 CALM      30.11S
$$

SUPPLEMENTAL OBSERVATIONS (CENTRAL)

CITY           SKY/WX    TMP DP  RH WIND       PRES   REMARKS
$$

SUPPLEMENTAL OBSERVATIONS (WEST)

CITY           SKY/WX    TMP DP  RH WIND       PRES   REMARKS
$$

SUPPLEMENTAL OBSERVATIONS (EAST)

CITY           SKY/WX    TMP DP  RH WIND       PRES   REMARKS
$$

SUPPLEMENTAL OBSERVATIONS ARE A COLLECTION OF AUTOMATED INSTRUMENTS
THAT ARE MAINTAINED BY A VARIETY OF FEDERAL AND STATE AGENCIES.
CERTAIN ELEMENTS...SUCH AS HUMIDITY VALUES AND SUSTAINED WIND
SPEEDS...MAY BE APPROXIMATED.



USA.gov is the U.S. government's official web portal to all federal, state and local government web resources and services.